www.pogodaiklimat.ru

Погода и климат >> Архив погоды >> Катар >> Духан


ПОГОДА в Духане

  • Прогноз погоды в Духане
  • Монитор погоды в Духане

АРХИВ ПОГОДЫ в Духане

Время (UTC), дата Ветер
(напр.,м/с)
 
Видим.   Явления Облачность Т
(С)
Тd
(С)
f
(%)
Тe
(С)
Тes
(С)
Комфортность P
(гПа)
Po
(гПа)
Тmin
(С)
Tmax
(С)
R
(мм)
R24
(мм)
S
(см)
21 16.07 СЗ 7 20 км н/о +33.7 +27.5 70 +53 +53 опасность
перегрева
996.6 996.4
00 17.07 С 14 20 км н/о +34.0 +25.3 61 +48 +48 опасность
перегрева
996.5 996.3
03 17.07 С 10 20 км н/о +33.7 +25.1 61 +48 +48 опасность
перегрева
997.6 997.4
06 17.07 СЗ 9 20 км н/о +34.4 +26.3 63 +51 +51 опасность
перегрева
999.4 999.2 +33.0
09 17.07 С 12 20 км н/о +35.0 +24.7 55 +48 +48 опасность
перегрева
999.1 998.9
12 17.07 С 11 20 км н/о +37.6 +17.4 31 +41 +41 опасность
перегрева
998.6 998.4
15 17.07 С 11 20 км н/о +35.7 +17.2 34 +39 +39 очень
душно
998.3 998.1
18 17.07 С 5 20 км н/о +32.8 +22.2 54 +42 +42 опасность
перегрева
998.9 998.7 +37.7
21 17.07 СЗ 10 20 км н/о +32.6 +26.4 70 +49 +49 опасность
перегрева
998.3 998.1
00 18.07 СЗ 12 20 км н/о +32.9 +24.8 63 +46 +46 опасность
перегрева
997.8 997.6
03 18.07 С 10 20 км н/о +33.0 +25.2 64 +47 +47 опасность
перегрева
998.8 998.6
06 18.07 СЗ 9 20 км н/о +33.9 +24.0 56 +45 +45 опасность
перегрева
999.9 999.7 +32.5
09 18.07 СЗ 9 20 км н/о +34.7 +24.0 54 +46 +46 опасность
перегрева
999.6 999.4
12 18.07 С 9 20 км н/о +39.5 +15.2 24 +41 +41 опасность
перегрева
997.6 997.4
15 18.07 СВ 9 20 км н/о +37.8 +10.5 19 +37 +37 очень
жарко
997.0 996.8
18 18.07 ЮВ 4 20 км н/о +32.4 +13.4 32 +34 +34 очень
жарко
997.5 997.3 +39.7
21 18.07 ЮВ 3 20 км н/о +29.5 +10.3 30 +30 +30 жарко 996.9 996.7
00 19.07 Ю 4 20 км н/о +28.8 +20.4 60 +35 +35 очень
душно
996.4 996.2
03 19.07 З 9 20 км н/о +32.2 +21.4 53 +40 +40 очень
душно
997.5 997.3
06 19.07 З 5 20 км н/о +33.8 +19.7 44 +40 +40 очень
душно
997.4 997.2 +27.8
09 19.07 СЗ 8 20 км н/о +35.0 +24.8 56 +48 +48 опасность
перегрева
997.1 996.9
12 19.07 СЗ 7 20 км н/о +35.2 +27.8 66 +56 +56 опасность
перегрева
995.9 995.7
15 19.07 С 12 20 км н/о +33.9 +28.0 71 +54 +54 опасность
перегрева
996.4 996.2
18 19.07 СВ 5 20 км н/о +32.7 +24.9 64 +46 +46 опасность
перегрева
997.6 997.4 +35.4
21 19.07 В 3 20 км н/о +30.8 +24.6 70 +44 +44 опасность
перегрева
998.3 998.1
00 20.07 СЗ 1 20 км н/о +27.2 +21.0 69 +34 +34 очень
душно
997.3 997.1
03 20.07 СЗ 5 20 км н/о +31.3 +26.9 78 +49 +49 опасность
перегрева
998.4 998.2
06 20.07 СЗ 4 20 км н/о +33.2 +26.3 67 +49 +49 опасность
перегрева
999.4 999.2 +26.7
09 20.07 СЗ 12 20 км н/о +34.6 +24.4 56 +47 +47 опасность
перегрева
999.3 999.1
12 20.07 С 13 20 км н/о +34.7 +26.8 64 +52 +52 опасность
перегрева
998.0 997.8
15 20.07 С 12 20 км н/о +35.1 +22.1 47 +44 +44 опасность
перегрева
997.8 997.6
18 20.07 С 6 20 км н/о +32.6 +25.7 67 +48 +48 опасность
перегрева
998.9 998.7 +35.5
21 20.07 С 2 20 км н/о +31.2 +25.2 70 +45 +45 опасность
перегрева
998.9 998.7
00 21.07 В 3 20 км н/о +27.8 +23.5 77 +38 +38 очень
душно
998.6 998.4
03 21.07 СЗ 7 20 км н/о +31.1 +28.3 85 +52 +52 опасность
перегрева
1000.0 999.8
06 21.07 СЗ 4 20 км н/о +34.2 +23.3 53 +45 +45 опасность
перегрева
1000.2 1000.0 +26.9
09 21.07 СЗ 8 20 км н/о +34.8 +25.9 60 +50 +50 опасность
перегрева
999.3 999.1
12 21.07 С 6 20 км н/о +35.9 +25.7 56 +51 +51 опасность
перегрева
997.8 997.6
15 21.07 С 7 20 км н/о +35.0 +28.0 67 +56 +56 опасность
перегрева
997.6 997.4
18 21.07 С 4 20 км н/о +33.0 +28.5 77 +55 +55 опасность
перегрева
998.3 998.1 +36.2
21 21.07 СЗ 2 20 км н/о +32.1 +28.7 82 +54 +54 опасность
перегрева
997.8 997.6
00 22.07 СЗ 5 20 км н/о +31.5 +29.6 90 +57 +57 опасность
перегрева
997.2 997.0
03 22.07 ЮВ 3 16 км н/о +30.0 +27.1 84 +47 +47 опасность
перегрева
998.2 998.0
06 22.07 З 4 20 км н/о +33.9 +24.9 59 +47 +47 опасность
перегрева
998.5 998.3 +29.8
09 22.07 СЗ 6 20 км н/о +35.8 +24.0 51 +48 +48 опасность
перегрева
997.3 997.1
12 22.07 СЗ 7 20 км н/о +36.7 +26.3 55 +53 +53 опасность
перегрева
995.9 995.7
15 22.07 С 7 20 км н/о +36.3 +24.8 52 +49 +49 опасность
перегрева
995.4 995.2
18 22.07 СВ 5 20 км н/о +34.3 +27.2 67 +53 +53 опасность
перегрева
996.3 996.1 +37.2
21 22.07 ЮЗ 2 15 км н/о +32.2 +26.9 74 +50 +50 опасность
перегрева
994.9 994.7
00 23.07 З 8 17 км н/о +32.8 +29.3 82 +57 +57 опасность
перегрева
994.5 994.3
03 23.07 В 2 12 км н/о +30.5 +26.7 80 +47 +47 опасность
перегрева
995.9 995.7
06 23.07 СЗ 6 20 км н/о +34.3 +26.8 65 +52 +52 опасность
перегрева
996.5 996.3 +30.1
09 23.07 С 11 17 км н/о +35.9 +29.7 71 +62 +62 опасность
перегрева
995.4 995.2
12 23.07 С 14 13 км н/о +35.1 +31.3 81 +67 +67 опасность
перегрева
994.7 994.5
15 23.07 С 12 20 км н/о +35.2 +30.0 75 +62 +62 опасность
перегрева
995.2 995.0
18 23.07 В 4 20 км н/о +34.5 +23.3 52 +45 +45 опасность
перегрева
996.4 996.2 +42.7

 

Местоположение метеостанции Духан (Катар): широта 25.40 долгота 50.75 высота над уровнем моря 5 м.

В архиве по умолчанию представлена погода в Духане за последнюю неделю. Архивные данные за месяц целиком и за предыдущие месяцы, начиная с января 2011 года, Вы можете получить, выбрав интересующий диапазон дат из раскрывающегося списка и нажав кнопку "Ввод!".


*Определитесь, кто Вы:
робот инопланетянин человек

Внимание! Время в таблицах - всемирное. Для получения местного времени необходимо прибавить поправку, которая равна 4 ч.

Смотрите также архив погоды в соседних городах и на ближайших метеорологических станциях:

Погода в Абу Самба (Катар) (73 км)
Погода в Дохе (Катар) (84 км)
Погода в Аэропорту Хамад (Катар) (88 км)
Погода в Доха порту (Катар) (91 км)
Погода в Бахрейне (Бахрейн) (97 км)
Погода в Дахране (Саудовская Аравия) (113 км)
Погода в Эль-Хуфуфе (Саудовская Аравия) (128 км)
Погода в Эд-Даммаме (Саудовская Аравия) (149 км)
Погода в Бендер-Дейере (Иран) (295 км)
Погода на Острове Киш (Иран) (345 км)

Пояснения к столбцам:

Ветер - указаны скорость ветра в м/с - средняя за 10 мин, порывы в срок и между сроками (в фигурных скобках) и направление, откуда дует ветер: С - северный, СВ - северо-восточный, В - восточный, ЮВ - юго-восточный, Ю - южный, ЮЗ - юго-западный, З - западный, СЗ - северо-западный.
Видимость - горизонтальная дальность видимости в метрах или километрах. При видимости от 1 до 10 км при отсутствии осадков обычно наблюдается дымка, при ухудшении видимости до 1 км и менее - туман. В сухую погоду видимость может ухудшаться дымом, пылью или мглою.
Явления - указаны атмосферные явления, наблюдавшиеся в срок или в последний час перед сроком; фигурными скобками обозначены явления, наблюдавшиеся между сроками (за 1-3 часа до срока); квадратными скобками обозначены град или гололедные отложения с указанием их диаметра в мм.
Облачность - указаны через наклонную черту общая и нижняя облачность в баллах и высота нижней границы облаков в метрах; квадратными скобками обозначены формы облаков: Ci - перистые, Cs - перисто-слоистые, Cc - перисто-кучевые, Ac - высококучевые, As - высокослоистые, Sc - слоисто-кучевые, Ns - слоисто-дождевые, Cu - кучевые, Cb - кучево-дождевые. Подробнее классификацию облаков см. в Атласе облаков (PDF).
T - Температура воздуха - температура, измеренная на высоте 2 м над землей.
Td - Температура точки росы - температура, при понижении до которой содержащийся в воздухе водяной пар достигнет насыщения.
f - Относительная влажность воздуха - влажноcть воздуха, измеренная на высоте 2 м над землей.
Te - Эффективная температура - температура, которую ощущает одетый по сезону человек в тени. Характеристика душности погоды. При расчете учитывается влияние влажности воздуха и скорости ветра на теплоощущения человека.
Tes - Эффективная температура на солнце - температура, которую ощущает человек, с поправкой на солнечный нагрев. Характеристика знойности погоды. Зависит от высоты солнца над горизонтом, облачности и скорости ветра. Ночью, в пасмурную погоду, а также при ветре 12 м/с и более поправка равна нулю.
P - Атмосферное давление - приведенное к уровню моря атмосферное давление.
Po - Атмосферное давление - измеренное на уровне метеостанции атмосферное давление.
Tmin - Минимальная температура - минимум температуры воздуха на высоте 2 м над землей.
Tmax - Максимальная температура - максимум температуры воздуха на высоте 2 м над землей.
R - Количество осадков - Количество выпавших осадков за период времени, мм. При наведении курсора мыши на число - период времени, за который выпало указанное количество осадков.
R24 - Количество осадков - Количество выпавших осадков за 24 часа, мм.
S - Снежный покров - Высота снежного покрова, см. При наведении курсора мыши на число - состояние снежного покрова и степень покрытия местности в баллах.